Weather in Boloto

Russia / Tula Oblast     53°48′07″N   36°18′30″E
temp.,
°C
wind,
m/s
gust,
m/s
humid.,
%
clouds,
%
prec.,
mm/h
press.,
hPa
HPBL,
m
16 april, fri
fri1600:00+10e3694100 0.9 1014192
03:00+9e349237 2.6 101470
06:00+8ese359193 0.0 101593
09:00+12se4775100 0.0 1016438
12:00+15se476197 0.1 10161512
15:00+14se4671100 2.0 1016684
18:00+13ese5972100 0.9 1015401
21:00+9sse368412 0.9 1017106
17 april, sat
sat1700:00+8se227955 0.0 101815
03:00+7ese228144 0.0 101813
06:00+6ese118469 0.0 101810
09:00+10ne3474100 0.0 1018247
12:00+12ene5875100 1.1 10171322
15:00+8se4988100 4.7 1017487
18:00+7s3592100 0.9 1017409
21:00+6s3692100 1.8 1018465
18 april, sun
sun1800:00+4ese229325 0.0 102020
03:00+3e3593100 0.0 102087
06:00+4e3695100 0.0 1020151
09:00+8ese357682 0.0 1020690
12:00+10se455998 0.1 10191520
15:00+11sse565996 0.4 10201375
18:00+9se3566100 0.0 1020540
21:00+6e3475100 0.0 102174
19 april, mon
mon1900:00+6e3789100 0.0 1021166
03:00+6ene4892100 0.0 1020228
06:00+6e51094100 0.3 1021390
09:00+7e598695 0.5 1021482
12:00+12ese7960100 0.2 10191322
15:00+13ese7857100 0.6 10191476
18:00+11e71174100 0.4 1018821
21:00+9ene71287100 1.3 1017474
20 april, tue
tue2000:00+9e71394100 2.9 1015877
03:00+7e91790100 6.4 1013826
06:00+7e101891100 2.6 1010929
09:00+7e112092100 8.6 1007940
12:00+7e122391100 8.1 10031258
15:00+8ese122290100 12.6 10001149
18:00+9ese101992100 2.9 998922
21:00+9se4992100 14.2 998275